GFSSE_250_rhum_027.txt.gz
RH
32 36 27 24 23 22 20 17 18 19 19 18 19 18 18 19 18 17 17 17 15 12 12 13 15 17 20 22 24 26 25 29 27 45 51 40 45 35 38 45 38 42 33
38 42 34 25 26 23 24 25 22 20 22 20 21 20 19 19 16 17 20 20 15 12 12 17 19 22 24 26 26 40 42 40 32 28 28 29 29 36 34 37 44 35 40
52 44 39 30 29 29 25 27 28 30 27 27 25 23 22 18 19 22 24 19 13 11 12 21 24 35 70 35 45 42 41 39 40 40 51 44 40 40 41 39 38 45 41
61 52 49 38 28 29 31 29 28 25 26 27 27 25 24 25 24 24 22 17 12 11 15 22 30 38 40 54 56 58 77 67 56 58 56 44 43 50 55 60 60 44 36
43 40 39 38 34 27 27 27 27 22 19 20 24 25 24 26 24 22 21 14 11 12 18 24 30 33 54 84 100 100 80 70 52 46 58 62 58 50 46 52 50 42 34
33 28 28 31 31 28 26 23 24 26 21 19 19 24 25 26 21 21 17 13 11 13 20 26 28 52 98 67 60 63 85 59 56 66 63 63 62 53 49 47 44 40 33
38 43 38 38 31 28 34 32 32 26 21 23 18 23 23 22 21 20 16 12 12 17 24 25 68 100 100 100 100 100 73 56 52 74 56 58 61 48 45 43 43 38 27
52 48 45 40 32 30 26 31 38 34 23 23 18 21 21 22 23 20 14 12 14 18 27 43 99 100 100 100 100 100 83 64 87 61 54 58 56 52 46 41 36 34 27
59 47 45 35 29 27 32 40 44 29 25 23 20 21 22 24 23 17 12 14 16 19 50 84 100 100 100 98 91 100 76 84 65 56 53 60 60 46 40 36 33 33 32
54 42 36 33 36 44 45 45 36 26 22 22 20 22 23 28 21 13 13 14 17 24 94 100 100 100 100 100 96 98 100 78 70 56 58 68 58 40 32 32 32 35 36
36 35 34 37 48 48 41 33 24 20 19 23 25 25 33 27 15 12 13 16 18 33 100 100 100 97 93 92 100 100 100 85 74 54 68 57 53 36 30 28 27 34 36
34 49 46 48 46 38 25 18 17 19 23 33 32 41 32 19 14 11 14 20 29 31 75 100 100 97 100 100 100 100 100 90 67 59 67 54 51 40 37 32 32 34 34
47 56 48 44 32 19 18 22 24 33 39 50 52 38 21 17 12 12 16 19 41 97 100 100 100 100 100 100 100 100 96 80 71 63 62 54 51 47 40 37 34 33 32
61 50 27 18 17 20 24 35 48 54 59 56 41 26 21 14 9 15 22 27 76 71 90 100 100 100 100 100 100 100 85 70 60 64 60 61 54 52 44 41 36 34 33
31 23 18 17 18 23 44 69 65 60 49 39 31 26 16 9 10 19 32 48 63 61 57 86 100 100 100 100 100 86 75 68 68 66 60 68 58 58 52 39 39 37 36
20 18 17 18 24 39 70 73 61 54 44 37 28 22 13 10 13 20 36 50 96 96 84 97 100 100 100 100 100 97 95 84 70 62 58 82 78 75 56 43 39 36 34
18 17 18 23 60 74 80 63 54 47 40 32 26 21 12 12 18 31 67 71 97 100 100 61 82 96 98 93 96 82 62 62 57 54 70 83 83 79 67 39 30 31 32
19 21 22 88 86 84 66 62 56 43 35 33 27 23 14 17 18 24 51 89 100 89 90 96 83 79 81 75 74 68 57 57 54 83 75 68 67 66 54 52 40 32 32
21 22 55 85 91 74 69 61 47 38 32 27 29 30 21 20 19 22 28 42 49 66 80 77 65 62 56 57 58 51 61 90 92 79 65 61 50 48 49 52 58 61 55
22 34 87 87 87 86 76 59 43 38 41 40 45 44 36 28 23 16 18 24 32 38 41 40 47 44 52 72 95 98 89 76 60 49 49 50 54 55 56 59 56 55 58
36 91 77 78 70 80 64 57 48 41 35 33 40 46 54 55 44 38 29 27 33 41 53 67 87 100 99 93 84 74 62 50 59 55 53 62 63 65 62 58 58 55 58
49 61 90 100 95 78 75 66 52 44 37 32 31 35 50 66 69 81 85 83 86 94 100 99 100 99 94 73 52 45 55 63 58 57 54 60 72 79 82 77 66 56 46
29 40 49 62 66 88 84 80 67 48 37 36 35 34 34 35 46 66 66 69 79 85 85 78 69 62 59 59 51 50 48 48 53 77 93 89 81 75 74 73 73 70 65
19 20 21 29 41 65 89 81 77 62 54 44 40 38 34 33 36 38 45 49 47 45 41 43 46 48 53 58 61 62 52 44 44 51 64 71 71 78 83 76 69 67 65
21 17 16 18 22 33 42 53 73 72 56 68 69 72 55 42 40 41 41 42 42 41 41 45 48 50 53 55 54 58 65 64 62 57 49 48 49 46 54 58 57 55 54
25 21 21 20 17 15 18 20 22 25 27 32 49 48 56 73 77 72 68 67 66 63 64 66 65 62 60 66 69 65 60 58 51 54 53 57 54 44 42 46 47 47 42

GFSSE_250_rhum_030.txt.gz
RH
37 28 21 23 29 32 21 20 21 20 20 19 18 18 18 18 18 17 16 16 15 15 16 20 20 16 12 13 14 17 20 20 22 23 22 22 22 22 28 26 23 25 25
45 37 30 28 36 33 34 27 25 21 22 22 23 22 21 22 22 23 21 19 17 18 21 21 20 15 12 14 18 25 26 33 28 38 42 33 39 36 30 32 36 38 36
44 43 64 54 55 49 40 34 27 26 25 26 26 24 20 21 23 24 24 23 22 21 21 19 18 14 12 17 23 41 90 56 47 52 49 52 58 41 41 42 40 38 45
71 79 90 72 56 50 46 40 34 28 26 25 26 26 22 19 18 20 23 23 24 23 19 18 15 12 14 19 29 76 91 48 47 54 70 71 54 48 50 54 55 48 49
100 100 77 54 38 30 29 29 28 28 28 25 24 27 31 26 20 18 19 23 25 22 20 18 15 12 15 22 36 54 59 80 100 100 64 63 60 63 66 62 63 56 53
100 98 85 64 48 29 25 24 24 26 26 26 27 22 22 26 22 21 19 22 22 20 21 18 13 12 16 23 35 54 98 77 59 68 88 61 54 65 61 54 52 51 48
100 97 78 61 42 27 23 22 25 28 27 23 21 20 22 34 27 23 20 24 22 21 20 15 12 13 16 22 32 74 100 88 100 100 89 67 70 75 51 50 50 49 45
100 94 66 56 38 24 21 23 26 26 25 23 26 30 33 37 29 24 22 22 23 22 18 12 13 15 18 30 83 100 100 100 100 100 97 86 74 72 54 53 55 54 42
100 99 71 38 29 25 24 22 25 26 25 27 38 38 36 32 20 22 22 22 24 20 14 12 14 16 22 68 100 100 99 100 100 95 98 92 85 74 54 54 53 50 36
77 58 47 37 30 26 25 20 23 23 32 38 38 31 21 17 20 21 24 26 26 16 12 13 15 18 58 86 100 100 100 100 100 100 100 100 95 62 49 53 51 45 37
44 41 38 35 33 27 26 22 22 42 41 35 27 16 16 20 28 32 36 29 18 13 12 15 17 58 99 100 100 100 100 81 84 100 100 100 78 61 53 51 51 49 41
42 40 43 32 30 30 31 32 43 42 22 17 16 17 26 34 41 47 32 21 16 12 14 17 20 55 95 100 100 100 100 100 100 100 100 100 86 68 50 51 53 54 52
47 48 38 35 43 41 35 42 32 20 17 19 21 35 56 51 42 32 23 20 12 12 17 20 22 38 100 100 100 100 100 100 100 100 100 93 80 55 53 56 56 61 60
55 55 41 66 59 44 40 28 17 18 20 24 47 65 52 42 32 23 19 12 8 13 19 25 40 49 70 100 100 100 100 100 100 100 100 81 68 46 53 56 56 60 65
66 48 70 69 53 38 27 16 18 21 28 58 62 53 42 34 25 20 16 11 8 14 22 28 36 95 97 100 95 100 100 100 100 100 100 98 64 59 62 59 58 64 72
87 76 62 43 34 22 15 16 19 30 62 60 55 46 42 34 27 22 15 11 12 15 25 37 44 60 48 55 81 98 100 100 100 94 93 89 80 72 54 52 57 72 77
87 62 42 28 21 15 16 20 46 72 72 57 50 44 34 33 27 26 16 13 15 18 22 38 71 98 81 73 71 91 94 96 98 82 81 75 76 57 55 58 77 67 63
55 39 28 19 16 18 23 82 78 80 71 65 48 36 31 32 33 34 19 18 19 17 39 47 59 82 98 99 87 52 55 67 68 69 61 58 53 60 99 94 82 67 54
31 24 19 18 18 20 55 78 75 78 78 68 43 36 29 27 31 33 36 30 24 17 15 42 61 56 49 55 68 72 67 47 50 44 48 76 96 88 81 64 53 59 60
21 19 19 17 20 31 66 82 76 82 72 56 46 41 33 30 31 33 42 51 56 43 28 17 17 22 30 37 39 40 43 51 71 93 98 98 87 70 54 63 61 63 67
19 18 19 20 23 81 75 60 69 77 77 70 60 47 36 33 32 32 34 38 46 62 74 72 64 61 67 66 75 90 96 99 97 94 85 88 74 63 65 66 65 65 62
19 20 20 26 54 75 90 74 65 70 74 74 73 53 40 38 39 39 37 36 38 40 48 64 70 70 73 66 61 61 75 94 76 74 67 51 59 66 71 74 70 68 70
20 25 24 27 39 44 37 45 56 55 68 76 78 70 63 61 64 66 65 50 41 40 40 40 41 45 51 48 44 39 44 49 51 54 58 60 62 66 69 68 65 70 74
20 18 18 20 20 18 18 21 28 35 42 38 34 32 38 35 45 38 36 60 70 72 70 61 60 62 61 64 67 71 66 62 64 61 71 77 75 82 96 90 83 82 76
22 21 19 19 20 21 18 17 18 17 17 16 15 15 15 15 16 20 22 22 22 26 31 35 38 40 46 44 37 42 62 67 61 53 48 66 67 73 78 90 92 82 69
30 28 21 21 23 24 22 24 24 24 22 20 17 16 14 15 15 15 14 17 19 20 21 22 23 25 25 26 26 26 30 38 51 62 78 82 72 81 76 70 61 52 44

GFSSE_250_rhum_033.txt.gz
RH
96 86 51 35 28 23 29 27 26 23 18 19 20 20 19 21 19 19 18 19 20 18 18 18 17 16 17 20 23 23 19 15 13 15 20 20 20 21 20 21 20 20 22
100 92 74 48 42 38 38 38 37 31 29 24 20 19 18 18 20 21 20 18 19 21 21 22 22 23 23 24 21 22 17 15 16 23 29 29 31 27 29 33 39 36 40
100 87 75 60 63 63 67 61 53 43 33 32 29 24 23 22 22 23 25 26 22 20 19 20 23 25 27 24 21 19 15 15 24 39 92 67 48 44 50 61 55 48 43
100 98 97 80 97 92 75 62 52 41 39 34 27 25 23 24 24 24 25 25 28 25 22 19 21 26 27 24 20 18 16 20 28 60 100 84 29 59 74 68 55 49 52
100 100 100 100 100 99 88 75 61 42 28 24 25 23 23 24 26 25 25 22 24 22 24 23 19 24 24 22 21 17 16 20 30 49 91 49 84 97 70 63 57 49 58
100 100 100 100 100 100 100 87 58 38 25 22 21 23 27 28 26 23 22 21 26 30 34 26 20 21 22 22 19 15 15 21 34 53 35 53 76 83 99 83 58 61 56
100 99 84 100 100 100 88 66 46 34 24 20 22 23 26 28 26 22 25 28 26 29 33 23 20 20 21 22 18 14 16 24 34 53 76 84 94 100 100 89 76 70 68
93 100 100 100 100 96 90 64 37 26 24 20 18 18 23 24 23 24 25 29 24 20 18 19 21 23 24 20 14 14 17 24 40 75 96 100 100 100 100 94 84 78 61
92 99 100 97 80 82 78 55 34 24 22 20 19 16 16 18 27 30 24 20 16 18 19 22 25 29 24 15 14 16 18 36 94 100 100 100 100 100 100 100 99 86 68
100 100 100 92 82 93 69 40 33 26 23 21 21 20 21 25 30 19 15 16 22 29 34 38 33 27 16 14 15 17 33 96 100 84 78 93 100 100 100 100 100 86 67
98 96 94 87 68 55 43 39 30 27 24 22 21 20 29 28 18 15 18 27 39 42 44 39 26 18 14 14 17 19 45 89 89 76 100 100 99 76 85 100 99 96 73
85 83 70 61 51 42 35 43 38 31 25 30 27 36 26 17 16 24 28 50 52 48 37 24 20 15 13 15 18 27 89 100 100 100 100 100 83 100 100 94 92 93 75
62 60 58 50 37 38 48 46 38 32 35 38 38 22 15 17 24 40 63 64 47 33 24 20 15 11 14 16 19 56 100 100 100 100 99 95 100 100 100 100 95 78 66
55 49 47 52 43 47 49 37 36 41 45 32 18 15 17 24 46 65 59 44 33 24 21 15 10 11 17 20 20 29 79 100 100 100 100 100 100 100 100 100 100 99 85
75 65 65 70 65 44 47 46 58 50 32 19 15 17 27 52 64 55 43 34 25 24 22 14 10 13 21 24 37 46 49 93 100 100 100 100 100 100 100 99 92 84 82
71 84 76 83 78 50 49 74 60 36 18 17 19 30 49 65 62 50 40 27 26 27 22 14 12 16 20 29 35 47 91 100 100 100 100 100 100 100 93 84 95 88 77
79 79 76 62 62 72 64 64 39 18 16 18 39 56 70 65 54 39 29 24 26 27 22 18 18 18 20 29 40 71 73 69 66 71 83 90 93 91 91 77 76 72 62
75 87 77 94 93 86 63 46 22 16 20 39 54 71 77 66 47 37 31 30 29 28 30 31 28 22 18 26 31 40 62 78 82 85 81 70 58 56 62 62 62 60 48
93 97 100 100 88 60 55 26 16 20 27 64 76 83 78 66 55 48 36 29 30 31 32 34 41 45 36 21 15 28 43 46 46 50 48 46 40 41 40 38 46 70 93
100 100 100 84 59 42 28 16 19 38 76 89 85 85 80 76 68 55 39 35 36 37 34 33 33 33 41 54 57 50 41 38 39 43 47 55 63 69 79 86 82 77 74
100 92 78 46 25 18 16 20 23 75 83 84 75 73 80 86 82 70 61 52 53 54 51 47 41 39 37 40 44 53 59 62 66 75 81 77 74 69 66 63 62 60 62
63 43 27 20 19 18 20 29 52 65 76 65 69 56 51 59 64 54 48 49 45 41 32 34 50 59 56 50 48 46 49 53 51 50 52 55 56 59 61 62 64 68 70
25 22 22 20 19 23 25 30 33 29 24 25 30 37 34 32 27 20 20 19 16 16 19 18 20 24 36 43 42 55 64 79 91 96 93 87 83 85 84 76 78 77 71
27 25 21 21 25 24 23 21 20 19 20 19 19 20 18 16 15 16 16 14 12 13 14 14 14 15 17 19 21 19 20 22 30 50 76 80 70 62 60 64 63 63 66
26 24 23 23 21 20 21 22 20 21 20 21 24 24 23 20 21 22 21 21 20 17 15 14 14 13 13 14 15 16 16 17 15 13 14 17 25 29 32 40 54 66 73
26 24 24 26 24 24 24 24 22 28 29 27 26 24 23 22 21 20 18 17 16 16 17 16 14 14 14 15 15 15 14 14 16 20 20 19 17 22 31 39 48 54 52

GFSSE_250_rhum_036.txt.gz
RH
53 62 72 96 80 49 29 28 24 26 24 27 25 20 19 19 18 16 15 15 15 16 18 18 18 20 22 20 22 22 24 23 25 26 23 21 18 16 14 12 13 16 17
66 72 90 100 90 66 50 42 39 38 41 36 39 30 27 27 24 19 18 17 16 16 18 20 20 19 20 20 20 22 23 24 26 26 22 20 17 15 16 17 18 20 24
67 100 100 100 86 88 73 65 50 74 60 54 49 43 40 33 28 24 20 21 20 20 21 20 24 24 24 24 22 20 23 26 28 26 22 19 18 16 22 51 41 28 27
56 81 100 100 84 81 84 91 98 84 72 63 62 49 36 28 26 24 21 20 20 23 27 27 25 23 22 30 30 29 23 23 27 25 23 20 18 23 46 92 47 46 75
66 74 88 100 100 99 100 100 100 94 89 82 69 52 37 28 22 19 18 18 25 29 28 24 23 25 27 23 27 30 25 22 27 27 24 19 24 36 65 64 44 99 80
84 95 99 100 92 83 100 100 100 100 99 84 60 45 30 25 20 19 18 21 23 30 28 24 22 24 25 26 24 23 24 25 27 27 21 17 24 30 44 36 43 91 84
86 80 99 100 100 100 100 100 100 100 98 83 52 34 26 21 19 19 19 18 18 20 20 23 25 23 20 21 21 23 29 28 27 24 18 16 22 30 32 36 69 100 100
100 92 74 74 95 100 100 100 100 100 96 79 60 38 28 22 19 20 18 19 18 18 21 23 20 15 16 23 24 26 28 30 28 21 16 16 24 31 44 75 97 100 100
100 100 100 99 91 100 100 100 100 93 67 66 65 41 30 24 20 19 18 19 20 22 25 16 14 17 28 32 37 34 37 29 23 16 17 24 33 34 69 98 100 100 100
79 100 100 100 91 95 100 100 96 85 66 62 46 33 27 24 23 22 23 24 26 20 15 17 24 46 44 46 47 41 30 22 16 15 17 28 50 100 100 100 96 92 100
72 62 81 78 83 97 99 85 80 74 61 45 35 31 29 28 26 28 33 25 15 17 22 26 40 50 48 49 42 30 22 17 16 16 20 54 95 100 100 100 100 100 100
82 60 57 58 77 97 94 84 78 69 54 46 36 32 28 29 37 35 20 14 17 28 49 62 66 56 44 34 25 21 17 16 17 19 21 50 94 91 100 100 100 100 100
98 79 62 59 66 72 71 82 79 60 56 48 38 31 28 34 45 21 15 17 30 55 67 58 46 36 29 23 18 14 12 15 18 22 26 80 100 99 100 100 100 100 100
81 95 73 70 71 72 74 71 61 71 60 59 48 34 33 46 26 16 18 35 65 63 55 42 35 27 24 20 15 12 11 15 19 22 31 96 98 100 100 95 99 100 100
78 86 80 74 65 64 59 60 82 70 66 57 42 37 45 36 17 25 28 57 63 54 44 36 28 26 26 19 14 12 14 15 20 24 28 77 92 100 100 98 100 96 100
91 96 76 72 70 63 65 79 62 65 58 43 52 65 48 26 18 29 50 72 63 52 36 29 28 29 31 22 19 19 18 17 18 23 26 35 56 82 98 100 100 100 84
98 77 64 58 62 66 78 64 85 72 51 59 88 59 34 18 26 48 78 72 64 49 39 29 27 29 29 28 29 30 24 18 18 20 24 29 40 48 59 76 80 82 86
99 99 77 76 83 100 99 98 81 78 68 100 67 41 19 22 46 56 79 71 65 55 42 34 30 33 32 30 29 32 40 42 30 18 20 23 34 45 43 43 49 58 64
100 100 97 96 88 100 98 88 80 85 89 71 38 19 18 44 70 70 81 75 68 64 54 45 43 43 43 42 40 37 35 34 40 49 57 47 35 32 35 38 44 48 48
100 100 100 97 100 100 92 86 97 100 82 42 19 21 32 61 66 67 71 73 65 74 63 52 50 46 43 41 41 47 46 43 42 42 45 50 55 56 62 67 71 72 72
94 100 90 98 100 100 100 100 87 65 42 18 20 36 66 85 71 73 61 50 48 40 32 29 28 20 17 20 23 24 25 37 53 49 48 46 46 48 51 55 55 54 57
84 100 100 100 100 100 100 84 54 26 19 22 38 48 45 32 33 36 37 31 26 19 15 15 14 14 13 13 14 14 14 15 17 18 21 28 42 60 63 62 67 66 64
87 100 100 100 95 88 57 32 20 21 32 35 30 22 21 22 20 20 20 19 18 19 19 18 18 18 17 16 16 16 16 17 17 17 16 18 21 23 22 21 20 20 24
95 96 78 57 41 26 24 22 22 28 27 24 22 22 22 22 20 21 22 20 21 21 22 21 20 18 17 15 15 14 14 15 17 18 24 24 24 25 25 26 29 32 31
93 60 42 28 26 29 25 24 27 25 23 23 24 22 21 22 24 22 20 19 19 19 18 18 17 16 15 14 13 13 13 12 12 11 12 18 22 24 24 25 25 24 24
71 32 28 35 36 30 28 26 23 27 25 25 26 25 24 26 24 22 20 18 18 17 18 18 18 17 14 14 14 13 13 14 15 12 10 9 10 15 19 20 18 17 17